M I D A S
Marine Information and Data Acquisition System
Tripno 1155 of the Zeeleeuw from 2006-08-29 06:31:26 to 2006-08-29 13:58:49
Back to CruiseResearch ActivitiesStationsMapUnderway DataData graphs

EquipmentUnitsComments
TimeDGPSUTC
LatitudeDGPSDM.mWGS84
LongitudeDGPSDM.mWGS84
SpeedMeteo Stationm/sRelative wind speed
DirectionMeteo StationdegRelative wind direction
TemperatureMeteo Stationdeg CelciusAir temperature
PressureMeteo StationPaAtmospheric pressure
HumidityMeteo Station%Relative humidity
Missing or incorrect values are displayed as -999
Metereological data collected by the RV Zeeleeuw from 2006-08-29 06:30:03 to 2006-08-29 14:10:36
Time Latitude Longitude Speed Direction Temperature Pressure Humidity
2006-08-29 06:31 51°13.613 2°56.032 4.2 56 13.3 100760 83
2006-08-29 06:32 51°13.639 2°55.959 7.6 53 13.3 100760 85
2006-08-29 06:33 51°13.676 2°55.886 5.6 57 13.5 100760 84
2006-08-29 06:34 51°13.707 2°55.803 6 52 13.6 100750 84
2006-08-29 06:35 51°13.721 2°55.727 4.6 56 13.6 100750 83
2006-08-29 06:36 51°13.728 2°55.723 4.2 304 13.7 100740 83
2006-08-29 06:37 51°13.727 2°55.725 3.6 310 13.7 100740 84
2006-08-29 06:38 51°13.746 2°55.713 5.7 329 13.7 100730 83
2006-08-29 06:39 51°13.821 2°55.641 8.4 326 13.7 100730 81
2006-08-29 06:40 51°13.923 2°55.564 10.1 309 14 100720 80
2006-08-29 06:41 51°14.034 2°55.49 11.2 300 14.2 100720 79
2006-08-29 06:42 51°14.154 2°55.4 13.1 303 14.4 100710 81
2006-08-29 06:43 51°14.266 2°55.258 14.4 281 14.5 100720 80
2006-08-29 06:44 51°14.355 2°55.081 15.2 286 14.4 100700 76
2006-08-29 06:45 51°14.472 2°54.911 12.8 283 14.5 100700 74
2006-08-29 06:46 51°14.613 2°54.774 15 279 14.7 100700 75
2006-08-29 06:47 51°14.778 2°54.62 16 285 14.8 100690 76
2006-08-29 06:48 51°14.942 2°54.464 12.8 286 15 100690 75
2006-08-29 06:49 51°15.105 2°54.313 15.3 284 15.2 100680 76
2006-08-29 06:50 51°15.266 2°54.155 15.6 279 15.3 100690 75
2006-08-29 06:51 51°15.429 2°53.997 17.2 281 15.4 100690 77
2006-08-29 06:52 51°15.593 2°53.843 16.4 280 15.4 100690 76
2006-08-29 06:53 51°15.755 2°53.685 15.9 282 15.4 100680 75
2006-08-29 06:54 51°15.933 2°53.575 13.6 285 15.4 100690 74
2006-08-29 06:55 51°16.118 2°53.539 13 285 15.5 100690 75
2006-08-29 06:56 51°16.305 2°53.494 14.8 309 15.6 100680 75
2006-08-29 06:57 51°16.496 2°53.449 12.4 307 15.6 100660 72
2006-08-29 06:58 51°16.685 2°53.403 15.3 306 15.7 100670 72
2006-08-29 06:59 51°16.876 2°53.355 13.9 303 15.6 100670 71
2006-08-29 07:00 51°17.064 2°53.313 13.8 304 15.7 100670 72
2006-08-29 07:01 51°17.249 2°53.306 14.3 305 15.7 100660 72
2006-08-29 07:02 51°17.438 2°53.344 11.8 305 15.6 100670 71
2006-08-29 07:03 51°17.618 2°53.458 11.3 303 15.7 100700 72
2006-08-29 07:04 51°17.793 2°53.583 9.9 286 15.7 100680 72
2006-08-29 07:05 51°17.967 2°53.709 14.8 301 15.7 100690 74
2006-08-29 07:06 51°18.142 2°53.83 12.9 282 15.7 100690 74
2006-08-29 07:07 51°18.317 2°53.948 13.4 308 15.7 100680 73
2006-08-29 07:08 51°18.492 2°54.072 11.9 276 15.6 100690 72
2006-08-29 07:09 51°18.66 2°54.205 10.6 309 15.7 100710 72
2006-08-29 07:10 51°18.83 2°54.337 12.3 278 15.8 100700 74
2006-08-29 07:11 51°18.993 2°54.487 13.2 277 15.7 100680 71
2006-08-29 07:12 51°19.15 2°54.666 12.1 304 15.7 100690 71
2006-08-29 07:13 51°19.302 2°54.845 10.2 280 15.8 100690 73
2006-08-29 07:14 51°19.456 2°55.026 12.9 284 15.7 100700 72
2006-08-29 07:15 51°19.608 2°55.202 10.7 306 15.7 100680 71
2006-08-29 07:16 51°19.767 2°55.383 9.2 280 15.7 100690 70
2006-08-29 07:17 51°19.912 2°55.574 12.6 305 15.8 100680 72
2006-08-29 07:18 51°20.059 2°55.773 12 284 15.8 100700 69
2006-08-29 07:19 51°20.205 2°55.969 12 303 15.8 100710 70
2006-08-29 07:20 51°20.349 2°56.157 10.9 280 15.9 100690 70
2006-08-29 07:21 51°20.484 2°56.373 9.2 302 16 100700 71
2006-08-29 07:22 51°20.612 2°56.596 11.6 283 16 100700 70
2006-08-29 07:23 51°20.737 2°56.82 9.9 304 16 100690 68
2006-08-29 07:24 51°20.862 2°57.049 8.4 281 16 100700 68
2006-08-29 07:25 51°20.986 2°57.273 9.3 285 16 100710 69
2006-08-29 07:26 51°21.111 2°57.502 8.2 285 16.1 100710 69
2006-08-29 07:27 51°21.233 2°57.735 7.9 284 16.1 100690 69
2006-08-29 07:28 51°21.355 2°57.966 10.2 304 16.1 100710 69
2006-08-29 07:29 51°21.477 2°58.192 8.4 284 16.2 100700 69
2006-08-29 07:30 51°21.602 2°58.427 8.9 309 16.1 100700 69
2006-08-29 07:31 51°21.739 2°58.638 11.2 278 16.1 100700 69
2006-08-29 07:32 51°21.877 2°58.843 9.1 304 16.1 100700 70
2006-08-29 07:33 51°22.015 2°59.051 10.5 283 16.1 100700 70
2006-08-29 07:34 51°22.155 2°59.256 9.1 306 16.2 100690 70
2006-08-29 07:35 51°22.3 2°59.453 11.2 283 16.2 100690 70
2006-08-29 07:36 51°22.463 2°59.607 12.2 306 16.2 100670 70
2006-08-29 07:37 51°22.629 2°59.754 12.6 277 16.1 100670 69
2006-08-29 07:38 51°22.77 2°59.872 9.9 310 16 100690 69
2006-08-29 07:39 51°22.879 2°59.951 9.7 283 16 100690 69
2006-08-29 07:40 51°22.95 2°59.987 8.1 279 16 100690 69
2006-08-29 07:41 51°22.991 3°0.013 11.1 280 15.9 100690 69
2006-08-29 07:42 51°23.013 3°0.027 8.3 310 16 100690 70
2006-08-29 07:43 51°23.023 3°0.03 8.4 282 15.9 100710 69
2006-08-29 07:44 51°23.016 3°0.027 5.9 303 15.9 100710 71
2006-08-29 07:45 51°23.008 3°0.026 9.9 282 15.9 100700 71
2006-08-29 07:46 51°23.001 3°0.023 8.7 301 15.9 100700 72
2006-08-29 07:47 51°22.994 3°0.021 8.4 283 15.7 100710 70
2006-08-29 07:48 51°22.986 3°0.023 13.8 281 15.8 100710 74
2006-08-29 07:49 51°22.979 3°0.021 8.4 276 15.6 100700 71
2006-08-29 07:50 51°22.972 3°0.022 10.6 303 15.8 100720 76
2006-08-29 07:51 51°22.967 3°0.022 8.9 280 15.6 100710 76
2006-08-29 07:52 51°22.997 3°0.079 6 308 15.3 100710 77
2006-08-29 07:53 51°22.935 3°0.194 6.6 19 15.1 100730 77
2006-08-29 07:54 51°22.833 3°0.077 12.3 349 15.1 100710 77
2006-08-29 07:55 51°22.781 2°59.852 11 278 15.2 100660 76
2006-08-29 07:56 51°22.74 2°59.626 11.8 353 15.3 100700 77
2006-08-29 07:57 51°22.701 2°59.411 12.2 282 15.4 100700 78
2006-08-29 07:58 51°22.684 2°59.316 10.8 344 15.4 100710 75
2006-08-29 07:59 51°22.673 2°59.319 9.8 284 15.4 100720 74
2006-08-29 08:00 51°22.668 2°59.331 10.6 6 15.5 100700 75
2006-08-29 08:01 51°22.664 2°59.337 10.4 20 15.5 100700 73
2006-08-29 08:02 51°22.661 2°59.34 10.6 29 15.5 100700 75
2006-08-29 08:03 51°22.657 2°59.341 10.9 31 15.5 100700 72
2006-08-29 08:04 51°22.651 2°59.341 11.1 34 15.5 100700 72
2006-08-29 08:05 51°22.64 2°59.339 11 26 15.5 100710 75
2006-08-29 08:06 51°22.631 2°59.335 11.2 23 15.4 100710 74
2006-08-29 08:07 51°22.62 2°59.333 9.9 27 15.4 100720 77
2006-08-29 08:08 51°22.608 2°59.33 10 19 15.3 100700 77
2006-08-29 08:09 51°22.598 2°59.323 10.9 24 15.3 100710 77
2006-08-29 08:10 51°22.588 2°59.321 9 19 15.1 100700 75
2006-08-29 08:11 51°22.579 2°59.318 9.1 27 15.2 100700 79
2006-08-29 08:12 51°22.566 2°59.313 10.5 20 15.2 100710 77
2006-08-29 08:13 51°22.515 2°59.234 12.4 359 15.1 100700 74
2006-08-29 08:14 51°22.477 2°59.052 13.3 350 15.3 100680 73
2006-08-29 08:15 51°22.461 2°58.931 11.9 287 15.4 100690 73
2006-08-29 08:16 51°22.451 2°58.914 7.6 349 15.4 100700 74
2006-08-29 08:17 51°22.442 2°58.93 7.3 3 15.5 100690 73
2006-08-29 08:18 51°22.439 2°58.937 10.6 14 15.7 100700 76
2006-08-29 08:19 51°22.435 2°58.937 10 23 15.6 100700 71
2006-08-29 08:20 51°22.429 2°58.935 10.2 31 15.5 100700 71
2006-08-29 08:21 51°22.421 2°58.929 11.2 29 15.5 100700 71
2006-08-29 08:22 51°22.409 2°58.924 9.3 25 15.5 100710 69
2006-08-29 08:23 51°22.397 2°58.917 9.7 27 15.5 100700 70
2006-08-29 08:24 51°22.384 2°58.91 9.7 23 15.5 100700 68
2006-08-29 08:25 51°22.371 2°58.901 10.2 24 15.6 100700 70
2006-08-29 08:26 51°22.361 2°58.895 9.6 23 15.7 100690 71
2006-08-29 08:27 51°22.349 2°58.888 10.2 22 15.6 100700 71
2006-08-29 08:28 51°22.311 2°58.832 10.9 1 15.7 100690 70
2006-08-29 08:29 51°22.287 2°58.692 13.5 345 15.6 100680 69
2006-08-29 08:30 51°22.278 2°58.59 11.6 354 15.6 100690 66
2006-08-29 08:31 51°22.266 2°58.576 8.5 4 15.6 100690 68
2006-08-29 08:32 51°22.262 2°58.58 9.8 21 15.6 100700 68
2006-08-29 08:33 51°22.259 2°58.58 10.9 29 15.7 100700 70
2006-08-29 08:34 51°22.253 2°58.576 9.5 26 15.6 100700 65
2006-08-29 08:35 51°22.244 2°58.572 10 29 15.8 100700 69
2006-08-29 08:36 51°22.234 2°58.566 9.3 26 15.8 100700 66
2006-08-29 08:37 51°22.223 2°58.562 8.5 19 15.8 100690 65
2006-08-29 08:38 51°22.211 2°58.553 9.9 23 15.8 100700 68
2006-08-29 08:39 51°22.2 2°58.546 9.4 25 16 100700 71
2006-08-29 08:40 51°22.189 2°58.541 9.6 21 15.7 100700 66
2006-08-29 08:41 51°22.178 2°58.533 8.4 21 15.8 100700 69
2006-08-29 08:42 51°22.164 2°58.525 8.7 26 15.8 100700 68
2006-08-29 08:43 51°22.143 2°58.506 11.7 13 15.7 100700 68
2006-08-29 08:44 51°22.106 2°58.403 12.5 342 15.7 100690 68
2006-08-29 08:45 51°22.102 2°58.291 11 276 15.6 100690 65
2006-08-29 08:46 51°22.097 2°58.246 10 346 15.6 100700 65
2006-08-29 08:47 51°22.083 2°58.258 9.6 359 15.6 100700 66
2006-08-29 08:48 51°22.077 2°58.269 10.2 21 15.7 100690 67
2006-08-29 08:49 51°22.074 2°58.269 9.4 24 15.7 100700 64
2006-08-29 08:50 51°22.067 2°58.267 10.3 29 15.8 100690 66
2006-08-29 08:51 51°22.058 2°58.262 9.3 24 15.8 100700 65
2006-08-29 08:52 51°22.049 2°58.258 9.9 24 15.9 100700 67
2006-08-29 08:53 51°22.039 2°58.254 9.2 26 15.8 100700 63
2006-08-29 08:54 51°22.029 2°58.249 9.5 22 15.8 100700 64
2006-08-29 08:55 51°22.015 2°58.239 9 19 15.9 100700 67
2006-08-29 08:56 51°21.97 2°58.159 11.2 350 15.9 100700 68
2006-08-29 08:57 51°21.958 2°58.026 9.5 277 15.7 100690 66
2006-08-29 08:58 51°21.962 2°57.924 10.5 339 15.6 100700 64
2006-08-29 08:59 51°21.955 2°57.894 7 282 15.5 100710 65
2006-08-29 09:00 51°21.943 2°57.894 6.4 336 15.4 100710 64
2006-08-29 09:01 51°21.931 2°57.896 6.4 278 15.5 100710 66
2006-08-29 09:02 51°21.921 2°57.901 8.5 360 15.6 100700 69
2006-08-29 09:03 51°21.914 2°57.905 9.2 9 15.6 100690 65
2006-08-29 09:04 51°21.908 2°57.905 8.6 23 15.7 100690 67
2006-08-29 09:05 51°21.901 2°57.9 9.3 22 15.7 100700 63
2006-08-29 09:06 51°21.891 2°57.892 8.6 30 15.6 100700 61
2006-08-29 09:07 51°21.881 2°57.884 9.7 30 15.7 100710 62
2006-08-29 09:08 51°21.87 2°57.876 8.2 30 15.7 100690 64
2006-08-29 09:09 51°21.857 2°57.868 7.6 27 15.6 100700 61
2006-08-29 09:10 51°21.843 2°57.86 7.7 23 15.7 100710 67
2006-08-29 09:11 51°21.829 2°57.852 8.2 27 15.8 100710 68
2006-08-29 09:12 51°21.802 2°57.827 8.7 7 15.8 100710 67
2006-08-29 09:13 51°21.768 2°57.741 9.1 344 15.6 100700 63
2006-08-29 09:14 51°21.758 2°57.653 9.7 284 15.6 100710 63
2006-08-29 09:15 51°21.77 2°57.583 9.7 315 15.8 100690 63
2006-08-29 09:16 51°21.777 2°57.551 8 281 15.8 100710 63
2006-08-29 09:17 51°21.773 2°57.533 7.8 306 15.8 100720 63
2006-08-29 09:18 51°21.761 2°57.526 8.2 238 15.9 100710 64
2006-08-29 09:19 51°21.744 2°57.52 8.7 307 16 100710 66
2006-08-29 09:20 51°21.726 2°57.511 10.2 256 16 100720 63
2006-08-29 09:21 51°21.709 2°57.499 7.4 308 16 100730 63
2006-08-29 09:22 51°21.692 2°57.49 6.3 309 15.9 100740 62
2006-08-29 09:23 51°21.676 2°57.48 6.7 307 15.9 100730 65
2006-08-29 09:24 51°21.66 2°57.468 8.4 285 15.9 100730 67
2006-08-29 09:25 51°21.647 2°57.459 6.6 302 15.9 100730 67
2006-08-29 09:26 51°21.634 2°57.449 5.7 265 15.9 100730 67
2006-08-29 09:27 51°21.621 2°57.441 6.4 262 15.9 100740 66
2006-08-29 09:28 51°21.606 2°57.433 7 303 15.9 100740 66
2006-08-29 09:29 51°21.594 2°57.429 8.5 306 15.8 100740 62
2006-08-29 09:30 51°21.627 2°57.415 10.9 283 15.9 100720 64
2006-08-29 09:31 51°21.657 2°57.327 11.2 337 15.9 100700 63
2006-08-29 09:32 51°21.641 2°57.208 9 347 15.9 100710 66
2006-08-29 09:33 51°21.62 2°57.141 9.4 347 15.8 100710 66
2006-08-29 09:34 51°21.599 2°57.123 7 2 15.7 100710 65
2006-08-29 09:35 51°21.582 2°57.112 8.8 12 15.7 100710 68
2006-08-29 09:36 51°21.564 2°57.102 8.6 23 15.6 100710 67
2006-08-29 09:37 51°21.544 2°57.094 8.2 25 15.7 100710 68
2006-08-29 09:38 51°21.524 2°57.084 8.9 26 15.7 100710 67
2006-08-29 09:39 51°21.503 2°57.073 7.8 22 15.7 100720 65
2006-08-29 09:40 51°21.482 2°57.061 8.5 23 15.8 100710 66
2006-08-29 09:41 51°21.461 2°57.049 7.7 21 15.7 100710 67
2006-08-29 09:42 51°21.44 2°57.036 7 21 15.7 100710 68
2006-08-29 09:43 51°21.418 2°57.025 8.4 15 15.7 100710 69
2006-08-29 09:44 51°21.396 2°57.015 7.5 27 15.7 100700 69
2006-08-29 09:45 51°21.372 2°56.998 7.6 1 15.8 100710 69
2006-08-29 09:46 51°21.339 2°56.923 9.4 335 15.7 100700 66
2006-08-29 09:47 51°21.359 2°56.839 10.1 278 15.7 100700 69
2006-08-29 09:48 51°21.406 2°56.843 10.3 239 15.7 100720 68
2006-08-29 09:49 51°21.441 2°56.803 10.2 280 15.7 100700 68
2006-08-29 09:50 51°21.45 2°56.776 9.1 236 15.6 100720 66
2006-08-29 09:51 51°21.443 2°56.766 9.4 247 15.6 100720 66
2006-08-29 09:52 51°21.425 2°56.76 10.6 256 15.8 100730 67
2006-08-29 09:53 51°21.406 2°56.751 7.7 285 15.7 100730 65
2006-08-29 09:54 51°21.386 2°56.743 6.1 267 15.8 100730 67
2006-08-29 09:55 51°21.366 2°56.733 6.5 279 15.9 100730 69
2006-08-29 09:56 51°21.347 2°56.725 8.8 301 15.8 100730 67
2006-08-29 09:57 51°21.328 2°56.717 6.1 279 15.8 100730 69
2006-08-29 09:58 51°21.31 2°56.709 6.9 277 15.8 100730 66
2006-08-29 09:59 51°21.291 2°56.701 10.4 301 15.7 100720 67
2006-08-29 10:00 51°21.274 2°56.694 6.2 285 15.8 100730 67
2006-08-29 10:01 51°21.257 2°56.686 7.9 310 15.9 100730 69
2006-08-29 10:02 51°21.239 2°56.676 9.4 285 15.9 100730 69
2006-08-29 10:03 51°21.218 2°56.667 9.9 303 15.9 100720 67
2006-08-29 10:04 51°21.197 2°56.655 8.3 280 15.8 100730 67
2006-08-29 10:05 51°21.174 2°56.64 6.5 303 15.9 100720 69
2006-08-29 10:06 51°21.153 2°56.625 6.2 84 16.1 100730 72
2006-08-29 10:07 51°21.132 2°56.613 9 305 16 100720 69
2006-08-29 10:08 51°21.113 2°56.6 6.3 286 16 100730 70
2006-08-29 10:09 51°21.093 2°56.587 8.2 308 16 100730 69
2006-08-29 10:10 51°21.072 2°56.573 6.4 281 16.1 100720 72
2006-08-29 10:11 51°21.05 2°56.558 5.7 308 16 100730 69
2006-08-29 10:12 51°21.027 2°56.542 5.7 283 15.9 100730 66
2006-08-29 10:13 51°21.006 2°56.528 7.7 302 15.9 100730 68
2006-08-29 10:14 51°20.984 2°56.514 6.7 285 15.8 100730 68
2006-08-29 10:15 51°20.963 2°56.499 7.6 309 15.8 100740 67
2006-08-29 10:16 51°20.944 2°56.485 7.2 283 15.8 100740 66
2006-08-29 10:17 51°20.925 2°56.471 6.2 305 15.9 100730 68
2006-08-29 10:18 51°20.904 2°56.456 7.3 285 16 100720 70
2006-08-29 10:19 51°20.883 2°56.442 5.8 308 15.9 100730 67
2006-08-29 10:20 51°20.862 2°56.426 5.6 279 15.8 100720 66
2006-08-29 10:21 51°20.859 2°56.422 7.9 305 15.9 100720 68
2006-08-29 10:22 51°20.891 2°56.406 10.4 280 16 100720 68
2006-08-29 10:23 51°20.946 2°56.39 9.7 279 16 100700 66
2006-08-29 10:24 51°21.005 2°56.372 9.8 306 16 100700 66
2006-08-29 10:25 51°21.051 2°56.357 9.8 278 16 100720 65
2006-08-29 10:26 51°21.086 2°56.351 9.1 304 16 100710 64
2006-08-29 10:27 51°21.123 2°56.351 10.2 280 16.1 100720 64
2006-08-29 10:28 51°21.172 2°56.358 7.8 281 16.1 100710 65
2006-08-29 10:29 51°21.215 2°56.357 9.4 308 16.1 100710 64
2006-08-29 10:30 51°21.241 2°56.347 8.2 284 16.1 100710 65
2006-08-29 10:31 51°21.25 2°56.336 10.7 309 16.1 100710 66
2006-08-29 10:32 51°21.248 2°56.325 9.8 284 16.2 100710 65
2006-08-29 10:33 51°21.236 2°56.312 8.8 308 16.1 100710 64
2006-08-29 10:34 51°21.221 2°56.299 10.2 281 16.2 100720 67
2006-08-29 10:35 51°21.199 2°56.287 9.8 305 16.2 100710 65
2006-08-29 10:36 51°21.176 2°56.274 8.2 282 16.2 100720 65
2006-08-29 10:37 51°21.153 2°56.261 5.8 308 16 100730 63
2006-08-29 10:38 51°21.13 2°56.249 7.6 278 15.9 100720 63
2006-08-29 10:39 51°21.106 2°56.235 6.7 310 15.9 100720 65
2006-08-29 10:40 51°21.084 2°56.22 6.4 265 15.9 100720 64
2006-08-29 10:41 51°21.06 2°56.206 8.6 283 15.8 100720 65
2006-08-29 10:42 51°21.038 2°56.192 5.6 309 15.8 100720 64
2006-08-29 10:43 51°21.016 2°56.177 6.3 282 15.8 100710 65
2006-08-29 10:44 51°20.993 2°56.163 6 301 15.8 100710 67
2006-08-29 10:45 51°20.971 2°56.148 7.4 285 15.8 100710 66
2006-08-29 10:46 51°20.949 2°56.135 6.8 309 15.8 100720 67
2006-08-29 10:47 51°20.928 2°56.12 5 280 15.9 100710 70
2006-08-29 10:48 51°20.905 2°56.108 7 309 15.8 100720 66
2006-08-29 10:49 51°20.885 2°56.098 10.6 259 15.9 100710 70
2006-08-29 10:50 51°20.916 2°56.082 9.9 303 15.9 100700 67
2006-08-29 10:51 51°20.98 2°56.016 12.6 286 15.9 100700 68
2006-08-29 10:52 51°21.048 2°55.937 10.8 302 15.8 100680 67
2006-08-29 10:53 51°21.064 2°55.879 8.5 276 15.8 100690 67
2006-08-29 10:54 51°21.043 2°55.862 8.7 307 15.8 100710 67
2006-08-29 10:55 51°21.021 2°55.847 5.1 285 15.8 100710 70
2006-08-29 10:56 51°20.999 2°55.83 8.8 307 15.8 100700 68
2006-08-29 10:57 51°20.978 2°55.816 7.1 278 15.7 100700 68
2006-08-29 10:58 51°20.957 2°55.803 6.5 302 15.6 100710 67
2006-08-29 10:59 51°20.936 2°55.787 6.2 277 15.6 100700 65
2006-08-29 11:00 51°20.914 2°55.773 6.3 307 15.7 100710 65
2006-08-29 11:01 51°20.892 2°55.758 5.9 286 15.7 100700 66
2006-08-29 11:02 51°20.868 2°55.743 6.5 307 15.8 100700 67
2006-08-29 11:03 51°20.846 2°55.73 5.2 284 15.8 100710 66
2006-08-29 11:04 51°20.855 2°55.723 8.8 303 15.8 100700 66
2006-08-29 11:05 51°20.884 2°55.667 10.3 281 15.8 100690 66
2006-08-29 11:06 51°20.891 2°55.562 9.8 336 15.8 100690 65
2006-08-29 11:07 51°20.874 2°55.497 8.4 280 15.9 100710 69
2006-08-29 11:08 51°20.851 2°55.466 8.3 338 15.8 100700 67
2006-08-29 11:09 51°20.827 2°55.44 8.6 280 15.8 100700 67
2006-08-29 11:10 51°20.804 2°55.425 7.8 3 15.7 100700 66
2006-08-29 11:11 51°20.78 2°55.407 7.2 5 15.8 100700 71
2006-08-29 11:12 51°20.751 2°55.385 8.2 8 15.8 100710 68
2006-08-29 11:13 51°20.726 2°55.368 11.2 11 15.7 100700 67
2006-08-29 11:14 51°20.7 2°55.353 8.7 18 15.7 100700 67
2006-08-29 11:15 51°20.675 2°55.339 9.8 23 15.6 100710 66
2006-08-29 11:16 51°20.647 2°55.327 10.3 20 15.8 100710 69
2006-08-29 11:17 51°20.621 2°55.312 7.9 15 15.9 100710 69
2006-08-29 11:18 51°20.595 2°55.294 10.5 13 15.9 100700 70
2006-08-29 11:19 51°20.569 2°55.276 7.7 18 15.9 100710 66
2006-08-29 11:20 51°20.545 2°55.259 9.8 30 15.9 100700 68
2006-08-29 11:21 51°20.504 2°55.223 10.5 1 15.9 100710 67
2006-08-29 11:22 51°20.467 2°55.097 10.9 331 15.8 100680 66
2006-08-29 11:23 51°20.504 2°54.99 12.5 281 15.9 100680 66
2006-08-29 11:24 51°20.569 2°54.992 11 284 15.9 100690 62
2006-08-29 11:25 51°20.622 2°55.006 12.7 279 15.9 100680 63
2006-08-29 11:26 51°20.664 2°55.032 9.9 284 16 100690 65
2006-08-29 11:27 51°20.687 2°55.044 8.3 303 16.1 100690 67
2006-08-29 11:28 51°20.681 2°55.033 8.7 282 16.2 100700 68
2006-08-29 11:29 51°20.668 2°55.019 9.1 303 16.3 100700 68
2006-08-29 11:30 51°20.651 2°55.008 10.7 283 16.4 100690 65
2006-08-29 11:31 51°20.629 2°54.996 6.4 301 16.3 100690 65
2006-08-29 11:32 51°20.606 2°54.984 9.3 282 16.2 100710 62
2006-08-29 11:33 51°20.584 2°54.97 6.8 308 16.1 100700 64
2006-08-29 11:34 51°20.561 2°54.955 8.8 77 16.2 100700 66
2006-08-29 11:35 51°20.538 2°54.94 8 300 16.1 100700 64
2006-08-29 11:36 51°20.517 2°54.925 8.6 82 16 100700 64
2006-08-29 11:37 51°20.494 2°54.913 6.2 309 16 100700 64
2006-08-29 11:38 51°20.493 2°54.909 9.6 284 16.1 100700 67
2006-08-29 11:39 51°20.512 2°54.867 10.2 307 16.1 100690 65
2006-08-29 11:40 51°20.52 2°54.769 10.7 278 16.1 100690 65
2006-08-29 11:41 51°20.513 2°54.701 9.1 306 16 100700 62
2006-08-29 11:42 51°20.484 2°54.688 9.6 282 16 100690 62
2006-08-29 11:43 51°20.453 2°54.678 10.3 304 16 100690 64
2006-08-29 11:44 51°20.42 2°54.665 8.9 284 16.1 100700 64
2006-08-29 11:45 51°20.39 2°54.648 6.3 302 16 100700 61
2006-08-29 11:46 51°20.362 2°54.628 5.8 277 16.1 100710 65
2006-08-29 11:47 51°20.335 2°54.611 8.5 305 16.1 100710 66
2006-08-29 11:48 51°20.309 2°54.596 7.4 285 16 100700 63
2006-08-29 11:49 51°20.286 2°54.583 6.8 301 16 100690 66
2006-08-29 11:50 51°20.265 2°54.57 5.9 281 15.9 100690 66
2006-08-29 11:51 51°20.244 2°54.558 7.4 307 15.9 100700 65
2006-08-29 11:52 51°20.224 2°54.548 6.5 278 15.9 100690 64
2006-08-29 11:53 51°20.203 2°54.537 5.8 303 16 100700 65
2006-08-29 11:54 51°20.188 2°54.53 9.9 281 16.1 100690 67
2006-08-29 11:55 51°20.21 2°54.515 10 308 16 100680 63
2006-08-29 11:56 51°20.258 2°54.455 11.7 277 16.1 100670 63
2006-08-29 11:57 51°20.301 2°54.387 10 304 16 100680 62
2006-08-29 11:58 51°20.328 2°54.342 9.7 281 16.1 100680 64
2006-08-29 11:59 51°20.344 2°54.315 9.4 279 16.1 100670 64
2006-08-29 12:00 51°20.343 2°54.291 8.5 283 16.1 100680 62
2006-08-29 12:01 51°20.328 2°54.273 9.7 284 16.2 100680 64
2006-08-29 12:02 51°20.308 2°54.264 10.6 304 16.2 100680 62
2006-08-29 12:03 51°20.285 2°54.252 7.3 278 16.2 100690 59
2006-08-29 12:04 51°20.26 2°54.241 6.9 304 16.2 100680 62
2006-08-29 12:05 51°20.235 2°54.227 8 287 16.1 100690 62
2006-08-29 12:06 51°20.211 2°54.215 5.8 303 16.1 100680 63
2006-08-29 12:07 51°20.187 2°54.202 9.8 75 16.3 100690 68
2006-08-29 12:08 51°20.166 2°54.192 6.7 310 16.2 100690 65
2006-08-29 12:09 51°20.144 2°54.181 4.9 284 16.1 100690 63
2006-08-29 12:10 51°20.123 2°54.173 8.5 307 16.2 100690 63
2006-08-29 12:11 51°20.102 2°54.161 6.3 280 16.3 100680 64
2006-08-29 12:12 51°20.08 2°54.154 5.9 307 16.2 100690 61
2006-08-29 12:13 51°20.057 2°54.146 6 277 16.2 100680 63
2006-08-29 12:14 51°20.071 2°54.144 9.5 285 16.2 100690 65
2006-08-29 12:15 51°20.109 2°54.071 10.3 283 16.3 100680 65
2006-08-29 12:16 51°20.15 2°54.001 10.9 310 16.2 100660 59
2006-08-29 12:17 51°20.17 2°53.955 7.8 281 16.1 100670 61
2006-08-29 12:18 51°20.164 2°53.926 9.9 285 16.1 100670 63
2006-08-29 12:19 51°20.15 2°53.909 8.5 281 16.1 100680 61
2006-08-29 12:20 51°20.129 2°53.899 8.7 309 16.1 100690 62
2006-08-29 12:21 51°20.103 2°53.888 6.5 277 16.2 100680 65
2006-08-29 12:22 51°20.077 2°53.875 6.9 54 16.2 100690 65
2006-08-29 12:23 51°20.052 2°53.863 8.3 75 16.3 100690 67
2006-08-29 12:24 51°20.028 2°53.853 8.1 310 16.2 100690 66
2006-08-29 12:25 51°20.005 2°53.844 6.8 283 16 100690 63
2006-08-29 12:26 51°19.983 2°53.835 5.7 307 16.1 100680 65
2006-08-29 12:27 51°19.961 2°53.827 8.5 281 16.1 100680 64
2006-08-29 12:28 51°19.94 2°53.821 5.7 302 16.3 100680 65
2006-08-29 12:29 51°19.92 2°53.815 6.1 286 16.2 100690 62
2006-08-29 12:30 51°19.941 2°53.81 9.6 302 16.2 100670 65
2006-08-29 12:31 51°19.974 2°53.738 9.6 282 16.3 100660 63
2006-08-29 12:32 51°19.992 2°53.622 10.9 306 16.2 100660 64
2006-08-29 12:33 51°20.008 2°53.525 9.5 283 16.2 100670 64
2006-08-29 12:34 51°19.998 2°53.491 9.2 285 16.2 100670 63
2006-08-29 12:35 51°19.983 2°53.479 9.4 277 16.3 100670 67
2006-08-29 12:36 51°19.964 2°53.472 8.9 309 16.3 100670 64
2006-08-29 12:37 51°19.943 2°53.462 4.5 284 16.3 100670 62
2006-08-29 12:38 51°19.921 2°53.456 8.7 307 16.4 100680 65
2006-08-29 12:39 51°19.901 2°53.451 5.9 284 16.3 100670 65
2006-08-29 12:40 51°19.882 2°53.446 9.4 309 16.2 100670 63
2006-08-29 12:41 51°19.861 2°53.438 5.3 277 16.2 100670 62
2006-08-29 12:42 51°19.84 2°53.432 7.9 303 16.2 100680 65
2006-08-29 12:43 51°19.821 2°53.427 10 285 16.2 100680 63
2006-08-29 12:44 51°19.799 2°53.423 6 306 16.3 100660 63
2006-08-29 12:45 51°19.776 2°53.415 5.9 277 16.4 100670 67
2006-08-29 12:46 51°19.753 2°53.41 6.4 304 16.4 100680 66
2006-08-29 12:47 51°19.731 2°53.406 8.2 284 16.3 100670 64
2006-08-29 12:48 51°19.738 2°53.411 8.8 310 16.3 100670 65
2006-08-29 12:49 51°19.769 2°53.362 9.9 283 16.3 100660 66
2006-08-29 12:50 51°19.785 2°53.25 10.5 304 16.3 100660 64
2006-08-29 12:51 51°19.798 2°53.194 9.3 277 16.2 100650 63
2006-08-29 12:52 51°19.807 2°53.169 10.5 284 16.2 100660 64
2006-08-29 12:53 51°19.815 2°53.139 8.4 283 16.2 100660 63
2006-08-29 12:54 51°19.806 2°53.129 9 278 16.1 100670 63
2006-08-29 12:55 51°19.79 2°53.127 8.2 277 16.2 100660 66
2006-08-29 12:56 51°19.772 2°53.126 9.1 260 16.2 100670 62
2006-08-29 12:57 51°19.751 2°53.126 5.8 265 16.4 100670 65
2006-08-29 12:58 51°19.731 2°53.124 7.5 270 16.3 100670 62
2006-08-29 12:59 51°19.711 2°53.123 5.8 267 16.2 100670 62
2006-08-29 13:00 51°19.69 2°53.122 6.8 262 16.2 100670 64
2006-08-29 13:01 51°19.669 2°53.119 4.5 264 16.1 100670 61
2006-08-29 13:02 51°19.648 2°53.117 6.7 268 16.2 100670 63
2006-08-29 13:03 51°19.628 2°53.115 4.4 263 16.3 100670 66
2006-08-29 13:04 51°19.607 2°53.113 7.4 261 16.3 100660 67
2006-08-29 13:05 51°19.607 2°53.123 8.6 247 16.3 100670 63
2006-08-29 13:06 51°19.638 2°53.093 7.6 324 16.4 100660 64
2006-08-29 13:07 51°19.665 2°52.972 10.7 326 16.4 100660 64
2006-08-29 13:08 51°19.695 2°52.874 8.2 317 16.3 100650 62
2006-08-29 13:09 51°19.711 2°52.815 9.3 316 16.4 100670 65
2006-08-29 13:10 51°19.706 2°52.785 6.6 336 16.3 100660 63
2006-08-29 13:11 51°19.689 2°52.791 7.3 340 16.3 100660 62
2006-08-29 13:12 51°19.671 2°52.792 7 354 16.3 100670 61
2006-08-29 13:13 51°19.654 2°52.805 6.2 9 16.1 100670 64
2006-08-29 13:14 51°19.641 2°52.817 6.9 18 16.1 100670 62
2006-08-29 13:15 51°19.629 2°52.823 5.6 22 16.1 100670 64
2006-08-29 13:16 51°19.614 2°52.827 6.4 32 16.2 100670 65
2006-08-29 13:17 51°19.598 2°52.831 8.2 24 16.2 100660 66
2006-08-29 13:18 51°19.581 2°52.838 7.2 27 16.2 100660 65
2006-08-29 13:19 51°19.563 2°52.845 7.6 26 16.1 100670 60
2006-08-29 13:20 51°19.546 2°52.853 7.6 30 16.2 100670 61
2006-08-29 13:21 51°19.528 2°52.86 6.5 22 16.3 100660 64
2006-08-29 13:22 51°19.509 2°52.865 6.1 23 16.3 100670 63
2006-08-29 13:23 51°19.491 2°52.871 7.5 20 16.2 100660 63
2006-08-29 13:24 51°19.472 2°52.877 7.3 19 16.2 100660 62
2006-08-29 13:25 51°19.454 2°52.885 6.9 21 16.2 100670 62
2006-08-29 13:26 51°19.437 2°52.895 6.8 18 16.2 100650 64
2006-08-29 13:27 51°19.421 2°52.907 7.5 17 16.3 100660 65
2006-08-29 13:28 51°19.405 2°52.92 7 23 16.3 100650 64
2006-08-29 13:29 51°19.39 2°52.933 6.5 26 16.3 100670 68
2006-08-29 13:30 51°19.364 2°52.943 7.5 20 16.3 100670 64
2006-08-29 13:31 51°19.275 2°52.933 8.5 15 16.4 100660 64
2006-08-29 13:32 51°19.118 2°52.887 6.1 7 16.3 100650 64
2006-08-29 13:33 51°18.925 2°52.812 7.5 7 16.2 100650 60
2006-08-29 13:34 51°18.73 2°52.735 8.1 4 16.2 100650 61
2006-08-29 13:35 51°18.539 2°52.647 8.8 1 16.3 100640 62
2006-08-29 13:36 51°18.346 2°52.564 8.9 4 16.2 100640 66
2006-08-29 13:37 51°18.153 2°52.484 7.8 3 16.2 100640 63
2006-08-29 13:38 51°17.96 2°52.405 7.7 3 16.2 100650 65
2006-08-29 13:39 51°17.767 2°52.321 10.6 1 16.2 100640 66
2006-08-29 13:40 51°17.57 2°52.324 7.9 7 16.2 100650 65
2006-08-29 13:41 51°17.374 2°52.402 7.2 13 16.3 100660 64
2006-08-29 13:42 51°17.19 2°52.506 5 16 16.3 100670 64
2006-08-29 13:43 51°17.001 2°52.625 4 7 16.3 100670 62
2006-08-29 13:44 51°16.817 2°52.725 3.9 9 16.3 100670 60
2006-08-29 13:45 51°16.631 2°52.83 5.7 6 16.4 100660 63
2006-08-29 13:46 51°16.439 2°52.928 5.4 6 16.4 100670 61
2006-08-29 13:47 51°16.25 2°53.03 4.4 11 16.3 100660 63
2006-08-29 13:48 51°16.059 2°53.135 6.7 13 16.4 100660 65
2006-08-29 13:49 51°15.874 2°53.24 8.9 11 16.5 100660 65
2006-08-29 13:50 51°15.688 2°53.342 5.9 17 16.4 100660 63
2006-08-29 13:51 51°15.507 2°53.448 5.5 9 16.4 100670 65
2006-08-29 13:52 51°15.321 2°53.554 6 9 16.4 100660 64
2006-08-29 13:53 51°15.144 2°53.68 4.9 8 16.4 100670 64
2006-08-29 13:54 51°14.967 2°53.829 4.3 15 16.3 100670 61
2006-08-29 13:55 51°14.829 2°54.045 1.3 38 16.4 100670 61
2006-08-29 13:56 51°14.712 2°54.309 2.2 10 16.4 100680 62
2006-08-29 13:57 51°14.595 2°54.575 2 5 16.4 100680 60
2006-08-29 13:58 51°14.475 2°54.842 3.1 10 16.3 100670 62
2006-08-29 13:59 51°14.357 2°55.109 4.5 17 16.3 100670 63
2006-08-29 14:00 51°14.238 2°55.309 3.3 21 16.3 100670 64
2006-08-29 14:01 51°14.118 2°55.423 5.8 22 16.4 100670 63
2006-08-29 14:02 51°13.995 2°55.511 4.3 20 16.5 100670 64
2006-08-29 14:03 51°13.872 2°55.6 3.6 19 16.6 100670 62
2006-08-29 14:04 51°13.771 2°55.693 1.5 11 16.8 100670 60
2006-08-29 14:05 51°13.7 2°55.801 2.1 33 16.9 100670 60
2006-08-29 14:06 51°13.655 2°55.893 2.5 29 17.1 100670 59
2006-08-29 14:07 51°13.626 2°55.969 3.7 33 17.2 100670 59
2006-08-29 14:08 51°13.604 2°56.072 4.1 41 17.3 100670 58
2006-08-29 14:09 51°13.6 2°56.086 2.4 58 17.3 100670 58